{"data":{"norad_id":49306,"epoch":"2026-05-24T21:49:29.256960Z","epoch_age_seconds":72985,"freshness":"FRESH","line1":"1 49306U 21090AD  26144.90936640 -.00000038  00000+0 -12719-3 0  9993","line2":"2 49306  87.9150 309.6125 0001947  98.7732 261.3621 13.19724638223357","mean_motion":13.19724638,"eccentricity":0.0001947,"inclination_deg":87.915,"raan_deg":309.6125,"arg_perigee_deg":98.7732,"mean_anomaly_deg":261.3621,"bstar":-0.00012719,"rev_number":22335,"period_min":109.1136710293,"perigee_km":1184.2992421128,"apogee_km":1187.2446282522,"semimajor_km":7563.9089351825,"source":"CELESTRAK","updated_at":"2026-05-25T13:38:22.525270Z"}}